Lid_Strength_Index
-0 -1 -1 -1 -1 -1 -1 -1 -1 -1 -2 -1 -1 -1 -1 -0 0 1 1 1 -0 0 0 0 0 -1 1 7 6 4 0 1 4 5 7 8 9 10 12 11 11 12 12 10 9 10 10
-1 -0 -1 -1 -1 -1 -1 -1 -1 -1 -1 -1 -1 -0 -1 -1 -0 0 1 1 -0 -0 -0 0 -0 -1 5 10 3 4 4 5 5 6 7 8 9 9 11 11 12 11 11 11 10 10 11
-0 -1 -1 -1 -1 -1 -1 -1 -1 -1 -0 -1 -0 -0 -0 -0 -0 -0 -0 -0 0 -1 -1 -1 -1 1 7 8 3 4 4 5 5 6 8 7 8 9 10 11 10 10 13 12 12 11 11
-0 0 -1 -1 -1 -1 -1 -1 -1 -1 -0 0 0 1 1 1 -0 -0 -1 -1 0 -0 -0 0 -1 4 9 4 4 4 5 5 5 5 6 6 7 8 9 9 10 13 13 16 13 11 11
1 1 0 -0 -1 -1 -0 -1 -1 -0 0 1 1 1 1 1 0 0 -0 -1 -1 -0 1 0 4 8 9 2 5 5 5 6 6 6 6 5 7 9 10 13 14 14 18 16 14 11 11
2 1 1 1 1 -0 0 -0 -1 -0 0 1 1 1 2 1 1 0 -0 -1 -1 1 2 3 6 11 8 8 4 5 6 5 7 7 8 8 10 12 13 15 18 16 16 15 16 12 13
2 2 2 2 1 1 1 1 0 0 1 1 1 1 1 1 1 0 1 4 7 8 7 11 11 11 7 5 4 5 5 6 7 9 12 11 13 15 13 13 14 14 15 16 15 12 13
2 2 2 2 3 2 2 2 2 1 1 2 2 1 0 0 0 1 2 6 6 6 10 7 8 8 6 5 7 6 6 9 10 12 11 13 15 12 12 12 13 14 15 16 14 12 13
2 2 3 3 3 3 3 3 3 2 2 3 2 3 2 1 1 2 4 5 3 3 8 7 7 8 8 6 8 7 7 9 11 12 12 14 13 11 11 13 13 14 15 15 15 14 15
2 3 4 4 3 4 3 3 3 4 4 4 3 4 3 1 3 3 4 3 2 3 12 10 8 7 7 7 10 6 7 8 11 12 11 12 11 12 12 13 12 15 12 13 14 16 18
2 2 2 3 4 4 4 4 5 4 4 4 4 5 4 2 3 4 3 3 3 5 20 9 8 5 7 10 9 8 7 9 11 11 11 13 12 12 13 12 12 13 12 13 14 16 17
1 2 2 3 5 5 5 5 5 5 5 5 4 4 4 2 2 2 2 3 4 13 20 12 9 10 10 10 9 8 8 8 9 11 12 12 11 11 11 11 12 11 12 13 15 17 20
0 1 3 2 4 6 5 6 5 6 5 5 5 4 4 3 4 2 2 4 14 18 10 12 12 11 11 11 11 10 11 11 13 15 15 13 13 12 11 12 12 13 15 19 20 21 21
-0 0 1 2 2 3 6 6 5 6 5 5 5 4 5 3 2 2 3 10 17 13 13 10 10 11 12 11 12 11 12 13 12 14 15 16 16 12 11 12 13 14 15 18 23 22 20
-1 -0 0 0 1 2 3 5 6 6 6 5 5 7 7 4 3 2 7 15 15 13 10 12 11 13 13 12 12 13 13 13 12 12 15 15 15 12 12 11 11 13 15 14 17 24 21
-1 -0 -0 -0 -0 1 2 3 4 6 5 4 8 9 8 4 3 4 9 14 12 9 9 10 13 12 15 14 14 14 15 13 13 12 12 14 16 13 12 11 12 13 12 15 17 22 24
-1 -1 -0 -0 -0 0 1 2 2 3 3 3 8 12 8 4 3 7 13 12 10 8 8 10 12 13 14 14 14 15 14 13 12 12 12 13 15 16 14 14 14 13 14 14 14 17 21
-1 -1 -1 -1 -1 -0 0 1 1 3 2 4 8 14 6 5 9 10 12 10 9 9 7 9 9 10 12 12 13 13 14 13 10 11 14 13 14 18 16 15 14 14 14 14 17 19 19
-0 -1 -1 -1 -1 -1 -0 0 1 2 2 5 10 11 5 4 13 13 13 11 10 10 9 9 10 9 9 12 14 12 12 10 10 11 12 11 15 19 17 15 14 15 15 14 15 17 20
0 0 -0 -0 -0 -1 -0 -0 -0 1 1 5 8 13 10 7 9 12 13 12 12 10 10 9 9 9 10 12 10 12 12 10 9 9 9 10 14 17 18 17 14 15 15 13 15 20 18
0 0 0 -0 -0 -0 -0 -0 -1 -0 1 5 7 11 11 15 11 11 11 11 12 13 9 9 11 10 11 13 12 12 11 11 9 9 10 11 17 15 15 13 13 13 14 14 14 14 16
1 1 0 0 0 -0 -0 -0 -0 -1 0 7 9 10 10 11 11 11 11 13 12 11 11 11 11 11 10 12 11 13 11 11 11 11 11 12 16 15 16 13 13 15 14 13 14 14 13
1 1 1 1 1 1 0 -0 -1 -1 1 6 8 6 8 11 12 12 12 12 11 10 9 9 9 10 11 11 11 11 10 10 10 12 12 14 14 16 20 16 15 19 15 14 13 12 11
1 1 1 1 1 1 1 0 -0 -0 1 6 8 8 10 15 12 12 10 10 10 10 10 9 9 10 9 8 9 11 12 11 11 12 11 14 16 19 23 21 22 16 15 13 13 12 11
1 1 1 1 1 1 1 1 0 -0 -0 4 6 8 10 17 12 11 11 11 10 9 10 10 9 8 7 9 14 18 17 14 14 14 13 12 15 20 21 26 20 18 16 15 15 15 11
1 1 1 1 1 2 1 1 1 1 -0 2 4 6 11 15 14 10 12 11 14 14 13 11 9 8 8 12 17 21 21 19 20 17 14 11 12 15 27 27 27 19 13 12 10 17 11
1 1 1 1 2 2 2 2 1 1 1 2 4 4 7 14 12 10 13 12 10 12 14 15 11 9 9 13 18 21 21 17 20 20 19 13 13 15 22 25 20 15 12 10 18 16 13
1 1 1 1 2 2 2 2 2 2 1 2 3 3 5 9 11 9 8 11 12 12 14 14 10 11 12 13 14 17 21 17 19 16 16 16 17 18 15 16 19 12 11 13 12 11 11
1 1 1 1 1 2 2 2 2 2 2 2 5 2 3 8 9 7 7 6 7 8 11 12 12 14 11 13 16 16 19 20 19 21 13 17 15 17 15 15 11 11 10 9 9 10 10